Location: Bougoudala
(13.2282°N, 4.9477°W)
Time: 06:43:49
(UTC+00:00)

GPS 2-17 Rocket1 - Pass Details

Date: 29 January 2020
Orbit: 571 x 659 km, 20.3° (Epoch: 27 February)

Event Time Altitude Azimuth Distance (km) Brightness Sun altitude
Rises 19:32:15 0° 242° (WSW) 2,834 8.0 -17.9°
Reaches altitude 10° 19:34:36 10° 238° (WSW) 1,947 6.7 -18.5°
Maximum altitude 19:39:04 55° 160° (SSE) 745 3.4 -19.5°
Enters shadow 19:40:18 41° 110° (ESE) 901 3.5 -19.8°
